Vero Beach, FL

2:16 PM EDT on April 28, 2017 (GMT -0400)
Vero Beach Municipal

Weather History for KVRB - December, 2012

Change the Weather History Date:

Monday, December 31, 2012

  Actual Average Record
Temperature  
Mean Temperature 64 °F 62 °F  
Max Temperature 74 °F 73 °F 84 °F (2015)
Min Temperature 53 °F 52 °F 30 °F (2000)
Degree Days  
Heating Degree Days 1 5  
Month to date heating degree days 61 106  
Since 1 July heating degree days 113 135  
Cooling Degree Days 0 2  
Month to date cooling degree days 117 93  
Year to date cooling degree days 3536 3404  
Growing Degree Days 14 (Base 50)    
Moisture  
Dew Point 53 °F    
Average Humidity 71    
Maximum Humidity 93    
Minimum Humidity 49    
Precipitation  
Precipitation 0.00 in 0.07 in 2.27 in (1963)
Month to date precipitation 3.51 2.19  
Year to date precipitation 49.90 51.87  
Sea Level Pressure  
Sea Level Pressure 30.28 in    
Wind  
Wind Speed 8 mph (ESE)    
Max Wind Speed 17 mph    
Max Gust Speed 24 mph    
Visibility 10 miles    
Events      
T = Trace of Precipitation, MM = Missing Value Source: NWS Daily Summary

Daily Weather History Graph

Daily Weather History Graph

Search for Another Location

Airport or City:

Trip Planner

Search our weather history database for the weather conditions in past years. The results will help you decide how hot, cold, wet, or windy it might be!

Date:

Astronomy

Dec. 31, 2012 Rise Set
Actual Time 7:12 AM EST 5:37 PM EST
Civil Twilight 6:46 AM EST 6:03 PM EST
Nautical Twilight 6:17 AM EST 6:32 PM EST
Astronomical Twilight 5:48 AM EST 7:01 PM EST
Moon 8:48 PM EST (12/31) 9:09 AM EST (12/31)
Length of Visible Light 11h 16m
Length of Day
10h 25m
Waning Gibbous, 90% of the Moon is Illuminated
Dec 31
Waning Gibbous
Jan 4
Last Quarter
Jan 11
New
Jan 18
First Quarter
Jan 26
Full

Hourly Weather History & Observations

Time (EST) Temp. Dew Point Humidity Pressure Visibility Wind Dir Wind Speed Gust Speed Precip Events Conditions
12:53 AM 64.0 °F 52.0 °F 65% 30.31 in 10.0 mi ENE 5.8 mph - N/A   Overcast
1:53 AM 64.0 °F 51.1 °F 63% 30.30 in 10.0 mi East 6.9 mph - N/A   Overcast
3:53 AM 64.9 °F 51.1 °F 61% 30.27 in 10.0 mi East 6.9 mph - N/A   Overcast
4:53 AM 64.9 °F 52.0 °F 63% 30.27 in 10.0 mi East 6.9 mph - N/A   Mostly Cloudy
5:53 AM 66.0 °F 54.0 °F 65% 30.28 in 10.0 mi East 6.9 mph - N/A   Overcast
6:53 AM 64.9 °F 52.0 °F 63% 30.30 in 10.0 mi East 6.9 mph - N/A   Mostly Cloudy
7:53 AM 64.9 °F 52.0 °F 63% 30.31 in 10.0 mi East 8.1 mph - N/A   Partly Cloudy
8:53 AM 69.1 °F 54.0 °F 58% 30.32 in 10.0 mi East 10.4 mph - N/A   Scattered Clouds
9:53 AM 70.0 °F 54.0 °F 57% 30.34 in 10.0 mi East 9.2 mph - N/A   Mostly Cloudy
10:53 AM 73.0 °F 54.0 °F 51% 30.34 in 10.0 mi ESE 12.7 mph - N/A   Scattered Clouds
11:53 AM 73.0 °F 55.9 °F 55% 30.32 in 10.0 mi East 15.0 mph - N/A   Scattered Clouds
12:53 PM 73.0 °F 55.0 °F 53% 30.29 in 10.0 mi ESE 11.5 mph - N/A   Scattered Clouds
1:53 PM 73.0 °F 54.0 °F 51% 30.26 in 10.0 mi SE 15.0 mph 21.9 mph N/A   Partly Cloudy
2:53 PM 72.0 °F 54.0 °F 53% 30.25 in 10.0 mi SE 15.0 mph - N/A   Scattered Clouds
3:53 PM 71.1 °F 55.0 °F 57% 30.23 in 10.0 mi SE 13.8 mph - N/A   Partly Cloudy
4:53 PM 69.1 °F 55.0 °F 61% 30.23 in 10.0 mi SE 12.7 mph - N/A   Scattered Clouds
5:53 PM 64.9 °F 55.0 °F 70% 30.24 in 10.0 mi SE 8.1 mph - N/A   Scattered Clouds
6:53 PM 64.0 °F 55.0 °F 73% 30.24 in 10.0 mi SE 4.6 mph - N/A   Mostly Cloudy
7:53 PM 59.0 °F 53.1 °F 81% 30.24 in 10.0 mi Calm Calm - N/A   Overcast
9:53 PM 55.9 °F 53.1 °F 90% 30.25 in 10.0 mi NW 4.6 mph - N/A   Overcast
10:53 PM 55.9 °F 54.0 °F 93% 30.24 in 7.0 mi Calm Calm - N/A   Overcast
11:53 PM 53.1 °F 50.0 °F 89% 30.23 in 6.0 mi Calm Calm - N/A   Overcast